Wetbulb
66.28 62.94 64.19 59.16 50.76 50.47 47.42 49.16 53.52 53.35 54.76 57.76 59.08 59.25 58.82 60.99 61.35 58.25 68.36 69.27 75.00 72.62 72.78 74.16 75.52 75.32 74.94 75.22 76.31 76.70 76.87 76.95 76.88 76.96 76.64 76.26 75.71 74.92 74.24 73.24 72.14 70.53 69.14 68.54 67.58 66.80 66.71 66.66 66.74
61.98 61.58 60.88 55.53 48.67 45.65 47.74 51.89 51.87 54.09 58.19 60.45 61.65 60.85 60.88 60.33 66.29 67.32 66.54 69.39 75.37 73.44 72.07 72.84 75.52 75.14 75.01 74.77 75.61 76.27 76.37 76.55 76.85 76.73 76.19 75.61 75.11 74.62 73.59 72.46 71.21 69.78 68.98 67.91 67.12 67.32 67.15 67.25 67.03
64.91 63.61 56.17 50.80 48.56 46.22 47.65 53.13 53.51 56.24 61.98 61.81 60.99 63.51 62.97 62.58 66.71 67.51 68.57 69.70 75.86 74.54 71.52 73.55 75.44 75.27 75.09 74.52 74.74 75.50 75.79 75.86 76.32 76.18 75.86 75.24 74.57 73.92 73.02 72.05 71.49 69.70 68.77 68.20 68.00 67.86 67.92 67.54 68.21
63.86 61.41 55.86 48.14 46.95 50.32 51.58 53.73 55.56 56.46 60.37 62.12 62.37 60.62 64.73 68.12 67.52 68.57 69.29 69.14 72.98 73.25 72.51 74.74 75.27 75.27 75.04 74.57 74.24 74.47 75.10 75.32 75.40 75.54 75.31 74.86 74.17 73.35 72.61 71.90 71.43 71.02 69.48 69.09 68.96 69.48 69.02 69.31 69.44
63.47 57.12 48.90 46.98 47.55 51.18 53.77 55.52 55.78 56.45 59.12 59.75 61.58 60.72 62.11 66.78 69.61 69.14 69.47 69.25 70.75 72.82 73.30 74.05 74.92 75.17 75.27 74.89 74.34 73.87 74.00 74.31 74.51 74.86 74.57 74.17 73.50 73.10 72.38 71.63 71.39 71.05 71.19 70.34 69.94 70.45 70.86 70.67 70.31
55.22 55.12 47.67 45.94 48.03 51.32 53.78 55.44 55.58 56.53 58.92 60.95 61.02 61.39 62.68 67.55 67.65 68.41 69.24 69.52 70.50 71.74 73.97 74.43 74.79 74.89 74.59 74.57 74.32 73.72 73.45 73.45 73.69 73.85 73.75 73.45 73.03 72.68 72.16 71.66 71.30 71.26 71.36 71.57 71.34 71.10 71.45 71.31 71.19
55.86 52.18 46.76 46.67 46.87 49.27 52.05 55.74 53.95 54.81 55.73 58.27 62.21 59.76 63.62 65.39 67.52 69.50 68.24 69.75 70.39 72.70 75.38 74.38 73.27 74.13 74.67 74.34 74.14 73.81 73.47 73.36 73.27 73.24 73.22 72.95 72.80 72.28 72.09 71.47 71.36 71.45 71.52 71.49 71.51 71.36 71.68 71.59 71.57
57.36 54.23 49.81 50.48 49.02 48.67 52.99 53.85 55.26 54.89 54.67 60.24 62.44 58.25 60.21 66.66 68.77 68.39 67.43 67.88 69.10 71.64 75.23 74.88 74.16 72.61 72.28 72.80 74.17 73.69 73.37 73.44 73.09 72.94 72.85 72.65 72.43 72.21 72.09 71.10 71.27 71.54 71.73 71.91 71.93 71.81 71.86 72.06 71.86
58.54 51.67 49.09 50.21 50.60 52.10 55.55 53.72 56.04 56.91 55.17 56.55 58.93 60.24 64.25 67.63 67.65 66.43 65.54 66.39 67.32 69.98 74.13 75.72 74.82 73.40 71.55 71.23 72.55 73.96 73.47 73.20 73.11 72.87 72.75 71.90 69.91 69.56 69.60 70.48 70.23 71.69 71.84 72.26 72.16 72.23 72.16 72.23 72.13
53.50 50.70 51.35 54.72 54.85 53.82 55.12 55.12 55.37 54.79 54.57 55.82 57.71 61.36 64.63 66.49 66.81 65.42 64.91 65.58 66.59 68.61 70.42 72.36 74.89 73.48 71.66 70.67 71.40 72.39 72.32 71.97 71.62 70.89 70.57 70.95 69.23 68.34 68.85 69.64 70.55 71.24 71.86 72.11 72.21 72.18 72.48 71.67 69.75
52.85 50.48 54.56 55.38 56.46 56.64 55.08 55.28 56.87 54.02 52.69 55.20 57.20 59.99 63.79 64.30 66.69 66.61 65.33 66.34 67.00 68.42 69.64 72.12 75.51 74.35 73.01 71.95 72.19 72.36 71.38 71.05 70.75 70.45 69.72 70.36 69.06 68.16 68.42 67.48 68.39 69.04 70.78 69.23 70.41 70.48 70.39 69.23 69.05
49.52 53.16 54.67 55.85 57.24 56.68 55.61 57.24 55.44 55.53 54.99 57.55 58.37 61.22 63.21 63.71 64.71 65.60 66.36 66.69 67.06 68.04 69.93 72.55 75.88 76.13 75.67 74.44 72.74 73.53 73.00 72.13 70.89 70.57 70.00 69.10 68.93 68.13 67.19 67.28 68.21 66.79 67.73 67.83 67.57 67.85 68.97 68.87 69.56
47.95 50.48 53.40 55.06 55.59 55.96 56.67 55.80 56.11 55.78 57.82 58.76 58.68 59.45 60.24 63.86 64.45 66.24 67.91 68.88 67.22 65.62 67.96 70.84 75.85 76.41 77.40 77.79 76.59 73.84 73.14 73.32 72.14 71.71 71.00 69.85 69.52 68.36 68.37 68.56 68.13 67.96 67.54 68.08 66.81 68.14 68.03 68.64 69.26
50.16 49.96 50.12 51.58 52.85 55.28 54.12 54.48 56.36 57.64 59.67 58.65 58.52 58.53 59.32 63.19 63.84 64.85 66.44 68.42 71.66 74.88 73.60 73.85 75.25 77.24 77.25 76.50 76.69 77.67 76.04 74.07 73.83 73.08 72.74 71.36 69.88 70.16 69.13 68.56 69.54 68.96 68.37 68.42 67.51 67.53 68.44 69.07 69.61
49.76 47.08 49.29 50.05 50.65 50.98 52.92 50.54 52.26 57.07 58.89 58.43 58.80 59.08 59.29 60.30 63.45 63.69 65.16 68.85 70.39 71.57 76.17 73.38 75.40 77.73 77.00 76.64 76.73 76.60 76.29 75.70 74.02 74.21 75.71 72.97 71.92 70.37 70.47 69.77 67.89 69.13 70.09 68.55 68.88 68.15 68.62 69.57 70.07
44.21 45.51 42.70 48.48 49.74 50.87 50.06 45.55 52.53 55.46 56.61 56.99 58.26 59.29 60.07 60.33 61.54 62.87 65.57 69.62 71.20 71.44 71.92 72.99 69.89 75.85 77.05 76.65 76.16 75.84 75.07 74.21 74.17 74.27 74.21 75.61 72.93 72.50 72.07 70.35 70.26 69.67 69.75 69.38 68.88 69.14 68.23 67.85 68.45
42.90 38.07 40.80 43.73 49.53 49.45 48.88 46.44 52.36 55.11 54.89 55.45 57.51 58.79 59.70 60.74 62.49 64.27 65.26 66.89 70.91 70.74 71.86 73.05 73.52 71.93 75.88 76.57 75.62 75.15 73.67 73.08 73.56 73.63 74.02 75.90 74.47 73.05 72.53 71.55 70.86 71.58 69.96 68.76 68.64 68.42 67.48 67.24 67.95
39.13 40.08 41.42 41.06 45.10 46.88 47.07 47.71 51.13 52.95 52.78 54.38 55.73 57.57 59.38 59.86 61.55 64.26 65.66 66.74 68.70 70.84 72.09 70.94 71.74 73.03 75.30 74.76 74.86 72.84 72.22 72.09 72.36 72.80 74.19 75.20 74.65 74.05 72.37 72.67 71.23 72.97 69.53 69.17 68.61 67.56 68.28 67.29 67.38
43.85 42.00 41.28 43.94 46.43 45.12 45.01 46.88 49.63 52.89 52.73 52.31 54.11 56.06 57.94 59.57 62.28 64.29 65.05 66.61 66.69 70.72 71.11 71.79 71.87 73.30 73.88 73.59 70.54 69.29 68.94 69.72 70.94 72.75 74.77 75.31 74.64 73.79 73.24 71.57 72.37 71.22 70.08 69.04 70.06 69.23 68.21 66.43 66.43
42.35 40.58 40.21 43.15 45.27 44.54 44.23 44.11 48.04 51.17 51.93 53.92 54.03 54.40 56.18 58.37 61.36 61.56 62.87 67.78 69.18 70.67 70.63 71.38 71.36 72.57 73.56 71.25 70.34 69.80 69.75 69.65 70.64 72.96 74.60 75.18 74.69 73.82 73.17 71.84 71.23 70.95 70.28 70.42 70.38 68.64 66.26 66.04 66.85
41.16 39.67 39.86 39.88 43.17 44.19 42.64 41.62 45.49 48.78 51.66 53.40 54.45 56.01 56.95 56.82 57.73 60.97 63.42 66.02 68.13 69.21 69.45 70.65 70.95 70.21 70.98 70.23 70.86 71.71 71.33 72.08 72.28 73.96 74.37 74.34 74.15 73.66 73.02 71.72 71.29 71.27 70.73 69.07 69.79 68.34 66.97 64.54 67.34
37.57 42.59 41.83 40.82 39.55 35.29 42.88 34.44 42.89 46.32 48.32 51.42 52.64 53.98 55.89 57.19 59.03 59.96 62.17 65.10 67.27 68.28 69.67 70.59 70.92 70.40 70.58 72.32 70.84 70.23 68.02 67.66 70.02 73.32 73.86 73.44 73.95 73.05 72.38 71.67 71.79 71.11 70.09 70.02 68.49 68.95 67.25 67.94 64.68
40.22 43.85 42.03 41.44 39.69 38.51 38.57 35.99 39.70 44.73 44.81 48.67 52.29 53.77 55.26 57.57 58.49 58.78 59.98 62.04 63.44 63.89 65.20 66.61 68.79 70.72 70.53 70.55 70.75 69.36 70.68 70.89 74.72 74.03 73.58 73.25 72.81 71.34 71.37 71.20 71.43 70.19 70.02 70.62 68.62 68.11 68.61 68.19 65.99
44.89 41.74 41.12 41.13 39.35 32.28 37.14 36.73 37.57 41.10 44.51 47.13 51.46 53.88 55.22 56.46 57.18 58.32 59.87 60.87 61.18 63.20 63.83 65.61 66.65 67.48 70.42 71.26 71.78 71.29 71.07 70.27 71.54 71.14 71.38 70.37 69.96 69.59 70.09 70.43 70.84 70.24 70.65 70.77 69.92 70.00 68.67 67.88 67.08
42.09 38.27 30.58 29.79 30.60 30.54 38.70 36.15 39.25 44.24 46.30 48.12 49.48 52.54 54.84 56.72 57.20 58.33 58.84 59.36 61.15 62.00 62.76 65.76 68.87 68.64 70.50 70.67 71.63 70.56 69.76 71.91 74.24 71.96 70.38 69.15 68.22 68.47 70.08 70.58 69.94 70.74 71.62 70.86 69.75 69.47 68.65 68.14 66.99
39.62 38.25 30.25 23.89 26.59 30.64 38.11 32.69 38.46 46.11 48.63 49.81 50.83 53.26 54.39 55.45 56.39 57.52 59.01 60.41 59.93 61.52 63.39 64.15 67.04 67.63 69.91 69.81 69.72 71.88 71.39 72.26 73.34 71.39 69.84 68.91 69.07 69.70 70.53 71.19 70.60 71.49 70.80 70.14 69.89 69.18 68.44 67.84 66.74
38.96 35.66 40.21 32.32 33.69 31.68 34.69 37.70 42.51 45.46 46.89 48.75 49.70 51.60 54.23 55.63 56.95 58.68 59.84 63.64 64.70 64.86 68.10 65.58 67.53 67.54 68.36 68.69 71.23 71.91 73.22 74.18 72.53 72.58 71.08 70.49 71.07 71.36 70.80 71.62 70.41 70.66 70.53 69.63 69.28 68.24 67.67 67.42 66.87
41.36 43.59 34.93 36.19 24.63 23.96 31.70 33.35 35.30 42.24 44.92 47.61 48.79 51.83 53.71 55.92 56.87 58.06 59.12 61.72 64.43 65.31 67.81 68.35 70.02 69.90 71.59 71.85 72.48 72.78 73.74 74.61 73.47 73.03 71.64 71.76 72.31 71.49 71.44 70.56 70.26 70.33 69.38 68.99 68.34 67.51 67.31 66.52 66.44
38.68 38.01 38.67 35.49 33.94 27.22 26.46 31.81 43.30 42.85 43.86 43.54 46.23 51.47 54.35 54.95 56.31 59.97 62.58 66.64 67.27 68.07 66.45 69.87 70.42 71.29 71.14 71.93 72.34 72.68 73.09 73.78 73.29 72.16 70.58 71.17 71.39 70.57 70.05 69.61 69.25 68.80 68.46 68.18 67.51 66.86 66.42 65.21 65.01
40.64 38.85 37.49 32.78 30.48 34.48 32.91 33.44 45.20 43.00 43.55 44.98 43.36 51.46 54.15 55.59 56.37 62.73 63.79 65.06 66.29 67.75 68.00 69.09 70.88 70.68 71.80 71.05 71.39 71.02 71.05 70.97 70.94 70.47 70.42 70.48 69.69 69.36 68.94 69.06 67.90 67.72 67.22 66.90 66.67 65.47 65.65 64.67 63.95
MSLP
1008.63 1008.08 1007.10 1005.90 1005.46 1003.24 1001.01 999.15 997.36 995.29 994.23 994.11 994.78 994.96 995.45 995.43 996.19 999.17 998.72 998.73 1000.74 1002.24 1003.62 1004.88 1005.76 1006.44 1006.94 1007.54 1008.04 1008.65 1009.12 1009.50 1009.83 1010.19 1010.46 1010.75 1010.99 1011.27 1011.75 1012.00 1012.22 1012.40 1012.69 1012.79 1012.92 1013.14 1013.25 1013.33 1013.36
1008.08 1007.41 1006.42 1005.29 1004.06 1001.87 999.56 997.93 996.36 994.88 994.13 994.47 995.15 995.67 996.00 996.46 996.83 998.35 998.77 999.08 1000.81 1002.06 1003.31 1004.44 1005.45 1006.20 1006.69 1007.27 1008.07 1008.80 1009.25 1009.50 1009.90 1010.32 1010.66 1011.02 1011.19 1011.38 1011.69 1012.08 1012.29 1012.31 1012.52 1012.78 1013.01 1013.27 1013.46 1013.56 1013.59
1008.39 1007.02 1005.99 1004.48 1003.08 1001.06 998.70 996.11 995.21 994.41 994.73 995.12 995.62 996.33 996.41 996.71 997.29 997.88 998.71 999.25 1000.81 1002.14 1003.25 1004.39 1005.38 1006.06 1006.77 1007.39 1007.90 1008.37 1009.03 1009.48 1009.89 1010.31 1010.69 1010.97 1011.23 1011.52 1011.85 1012.05 1012.20 1012.25 1012.50 1012.74 1012.89 1013.26 1013.47 1013.73 1013.79
1007.10 1006.15 1005.84 1003.76 1001.80 1000.00 998.59 996.63 995.18 994.21 994.98 995.85 996.04 996.34 996.75 997.13 997.10 997.86 998.64 999.63 1000.93 1002.04 1003.13 1004.40 1005.23 1005.94 1006.83 1007.30 1007.85 1008.31 1008.85 1009.27 1009.77 1010.21 1010.64 1010.94 1011.04 1011.34 1011.76 1012.04 1012.21 1012.31 1012.56 1012.89 1012.95 1013.11 1013.36 1013.60 1013.70
1006.86 1005.37 1004.75 1003.31 1001.43 1000.15 998.22 996.66 995.64 994.84 994.77 995.65 996.13 996.11 996.64 997.07 997.80 998.24 998.79 999.54 1000.41 1001.75 1002.84 1004.28 1005.19 1005.97 1006.63 1007.28 1007.77 1008.29 1008.69 1009.28 1009.69 1010.06 1010.42 1010.80 1010.83 1011.14 1011.42 1011.76 1012.05 1012.32 1012.62 1012.81 1013.03 1013.11 1013.21 1013.35 1013.52
1006.81 1005.68 1004.63 1002.83 1001.16 999.85 998.20 997.23 996.15 995.62 995.50 995.48 995.90 996.24 996.26 996.65 997.68 998.40 998.88 999.68 1000.20 1001.34 1002.73 1004.04 1004.91 1005.89 1006.61 1007.17 1007.68 1008.12 1008.53 1008.87 1009.29 1009.73 1010.09 1010.42 1010.77 1010.97 1011.26 1011.62 1011.77 1012.02 1012.39 1012.54 1012.79 1013.07 1013.08 1013.28 1013.38
1006.25 1005.34 1004.45 1003.33 1001.60 1000.07 998.85 997.87 996.80 995.95 996.18 995.94 995.70 995.82 996.03 996.21 997.32 998.27 998.83 999.35 999.79 1001.01 1002.63 1003.97 1004.96 1005.71 1006.54 1007.09 1007.67 1007.90 1008.24 1008.67 1009.05 1009.47 1009.87 1010.22 1010.55 1010.87 1011.08 1011.46 1011.76 1011.85 1012.13 1012.34 1012.51 1012.81 1013.04 1013.24 1013.28
1005.96 1005.46 1004.08 1002.84 1001.27 999.97 998.88 998.34 997.69 996.43 996.18 996.27 996.06 996.05 996.45 996.66 996.86 997.91 998.45 998.88 999.34 1000.53 1002.36 1003.68 1004.74 1005.48 1006.12 1006.86 1007.55 1007.99 1008.34 1008.60 1009.01 1009.22 1009.62 1009.99 1010.34 1010.57 1010.87 1011.16 1011.50 1011.60 1011.84 1012.08 1012.27 1012.59 1012.95 1013.14 1013.32
1005.37 1004.53 1003.09 1002.24 1001.09 999.97 998.87 998.10 997.57 997.38 996.92 996.73 996.55 996.58 996.84 997.11 996.40 997.63 998.31 998.36 998.83 999.79 1001.43 1002.80 1004.12 1005.02 1005.69 1006.35 1007.11 1007.89 1008.30 1008.54 1008.89 1009.26 1009.50 1009.80 1009.94 1010.31 1010.56 1010.78 1010.94 1011.32 1011.48 1011.75 1012.00 1012.36 1012.70 1012.86 1012.97
1004.92 1003.39 1002.14 1001.76 1000.95 1000.04 999.46 998.49 997.75 997.58 997.23 996.81 996.76 996.43 996.91 997.61 997.53 997.66 998.21 998.10 998.52 999.09 1000.26 1001.54 1002.78 1003.99 1004.92 1005.28 1006.15 1007.16 1007.82 1008.20 1008.50 1008.62 1008.95 1009.48 1009.51 1009.67 1009.89 1010.10 1010.51 1010.84 1011.13 1011.45 1011.67 1012.04 1012.35 1012.51 1012.53
1004.14 1002.10 1002.12 1001.09 1000.45 1000.10 999.56 999.02 998.61 998.26 997.57 996.81 996.57 996.61 996.88 997.33 997.58 997.71 997.67 997.88 997.96 998.42 999.06 1000.14 1001.75 1003.20 1003.85 1004.38 1005.34 1006.27 1006.86 1007.32 1007.74 1008.07 1008.46 1008.80 1009.04 1009.16 1009.23 1009.44 1009.80 1010.35 1010.79 1011.11 1011.33 1011.67 1011.94 1011.92 1011.95
1003.38 1002.56 1002.03 1000.98 1000.42 1000.01 999.30 998.90 998.52 998.72 998.24 997.39 996.90 996.62 996.38 996.99 997.23 997.42 997.37 997.49 997.68 998.06 998.49 999.80 1001.21 1002.51 1002.88 1003.58 1004.40 1005.25 1005.77 1006.22 1006.69 1006.97 1007.61 1008.03 1008.50 1008.58 1008.64 1008.71 1008.83 1009.57 1009.93 1010.47 1010.56 1010.86 1011.13 1011.34 1011.29
1002.35 1001.83 1001.33 1000.84 1000.56 1000.37 1000.06 999.14 998.78 998.53 998.70 998.18 997.59 996.89 996.46 996.32 997.36 997.67 997.43 996.98 998.07 1000.21 999.49 1000.69 1001.91 1001.83 1002.15 1002.91 1003.52 1004.03 1004.61 1004.96 1005.36 1005.89 1006.39 1006.84 1007.26 1007.65 1007.92 1008.05 1008.28 1008.60 1009.07 1009.53 1010.00 1010.02 1010.38 1010.67 1010.65
1002.46 1001.64 1000.86 1000.27 999.74 999.70 999.66 999.26 999.08 997.95 998.16 998.38 997.98 997.38 996.83 997.02 998.10 998.13 997.86 997.85 998.15 999.21 1000.10 999.75 1000.46 1001.06 1001.86 1002.71 1003.29 1003.67 1003.91 1004.02 1004.36 1004.78 1005.11 1005.74 1006.22 1006.60 1007.10 1007.43 1007.61 1007.84 1008.09 1008.37 1009.07 1009.24 1009.39 1009.73 1009.93
1002.96 1001.88 1000.74 999.77 999.59 998.92 999.36 998.60 997.71 998.17 998.21 997.85 997.79 997.54 997.00 996.90 997.14 997.42 997.63 998.02 998.16 998.56 999.09 999.52 999.75 1000.79 1001.50 1002.29 1003.05 1003.46 1003.49 1003.58 1003.78 1003.78 1003.72 1004.47 1005.19 1005.90 1006.35 1006.71 1007.09 1007.12 1007.24 1007.67 1008.04 1008.52 1008.65 1008.78 1009.05
1003.20 1002.19 1000.44 999.29 999.88 998.55 999.72 997.38 996.90 997.78 997.91 997.63 997.84 997.59 997.08 996.85 996.87 997.03 997.50 997.64 997.94 998.40 998.92 999.30 999.77 1000.46 1001.23 1001.90 1002.64 1003.04 1003.10 1003.19 1003.11 1003.05 1003.18 1003.60 1004.17 1004.82 1005.69 1006.05 1006.32 1006.71 1006.95 1007.18 1007.31 1007.62 1008.04 1008.36 1008.64
1002.75 1001.58 1000.68 999.63 998.85 998.40 998.72 997.13 996.72 997.23 997.38 997.12 997.15 997.16 997.06 996.78 996.71 996.83 997.05 997.31 997.72 998.20 998.64 999.31 999.99 1000.50 1001.19 1001.63 1002.10 1002.19 1002.30 1002.49 1002.49 1002.50 1002.58 1002.79 1003.50 1004.08 1004.87 1005.44 1005.75 1006.08 1006.51 1006.74 1006.89 1007.18 1007.56 1008.14 1008.48
1001.90 1000.89 999.83 998.86 998.69 998.46 997.93 996.29 996.12 996.58 996.84 996.38 996.49 996.42 996.30 996.32 996.17 996.13 996.47 996.76 997.13 997.68 998.35 999.15 999.81 1000.23 1000.76 1001.35 1001.71 1001.69 1001.78 1001.80 1001.96 1002.02 1002.19 1002.35 1002.85 1003.59 1004.33 1004.94 1005.32 1005.64 1006.06 1006.29 1006.60 1006.95 1007.28 1007.75 1008.26
1001.99 1001.40 1000.28 999.52 999.16 998.74 997.86 996.32 995.18 995.04 995.37 995.40 995.79 995.73 995.58 995.50 995.53 995.51 995.72 995.88 996.40 997.03 997.93 998.59 999.34 999.82 1000.46 1001.03 1001.24 1001.32 1001.33 1001.51 1001.23 1001.25 1001.62 1001.94 1002.41 1003.11 1003.99 1004.68 1004.93 1005.38 1005.59 1005.91 1006.26 1006.69 1007.22 1007.70 1008.04
1002.86 1002.30 1001.28 1000.72 1000.38 1000.04 998.61 996.89 995.59 995.03 994.43 994.25 994.51 994.70 994.98 994.93 994.71 995.02 995.14 995.49 995.93 996.77 997.53 998.26 998.75 999.27 999.78 1000.53 1000.75 1000.76 1000.68 1000.38 1000.21 1000.36 1000.90 1001.53 1002.12 1002.86 1003.57 1004.30 1004.70 1005.04 1005.34 1005.63 1005.94 1006.39 1007.06 1007.60 1007.99
1003.22 1002.75 1002.12 1001.66 1001.34 1000.88 999.62 998.13 996.46 995.42 994.73 994.40 993.90 993.74 993.73 994.11 994.19 994.51 994.51 994.84 995.35 996.07 996.89 997.43 998.12 998.62 999.11 999.70 1000.09 1000.18 1000.22 999.89 999.79 999.87 1000.59 1001.07 1001.82 1002.63 1003.35 1004.11 1004.55 1004.64 1005.07 1005.50 1005.91 1006.44 1006.90 1007.56 1007.82
1003.25 1003.05 1002.43 1002.05 1001.62 1000.58 1000.38 998.07 997.20 996.11 994.98 994.65 994.15 993.79 993.33 993.18 993.51 993.74 993.97 994.31 994.83 995.43 996.04 996.71 997.43 997.95 998.42 998.84 999.26 999.43 999.56 999.61 999.35 999.61 1000.06 1000.93 1001.69 1002.46 1003.15 1003.88 1004.34 1004.44 1004.83 1005.20 1005.75 1006.30 1006.87 1007.34 1007.62
1003.54 1003.26 1002.88 1002.39 1001.71 1001.17 1000.37 999.25 996.81 996.92 994.81 994.30 993.76 993.58 993.24 992.87 993.11 993.11 993.34 993.71 994.25 994.86 995.36 995.84 996.39 996.98 997.44 997.94 998.42 998.85 999.12 999.14 999.04 999.43 1000.06 1000.90 1001.77 1002.51 1003.15 1003.70 1004.34 1004.44 1004.64 1004.97 1005.45 1005.97 1006.49 1006.85 1007.36
1004.74 1004.24 1003.69 1002.99 1002.18 1000.71 1000.00 999.35 997.10 996.39 995.33 994.35 993.29 992.60 992.23 992.21 992.28 992.34 992.67 993.06 993.49 993.88 994.18 994.80 995.43 995.87 996.40 996.99 997.70 998.18 998.53 998.73 999.02 999.33 1000.39 1001.33 1002.16 1002.89 1003.45 1003.72 1004.03 1004.25 1004.51 1004.63 1005.03 1005.55 1006.13 1006.57 1007.15
1004.67 1004.39 1004.14 1002.84 1001.82 1000.10 999.81 998.81 996.92 996.11 995.42 994.36 993.40 992.33 991.51 991.18 991.12 991.32 991.68 991.96 992.39 992.86 993.37 993.73 994.32 995.00 995.53 996.45 997.04 997.48 998.21 998.42 998.58 999.17 1000.21 1001.40 1002.14 1002.90 1003.15 1003.40 1003.79 1004.05 1004.22 1004.48 1004.80 1005.42 1006.00 1006.43 1006.90
1004.94 1004.87 1005.23 1003.98 1002.19 1000.50 999.08 997.65 996.60 996.39 995.63 994.33 993.30 992.13 991.48 990.97 990.92 990.76 990.91 991.17 991.30 991.87 992.32 992.83 993.57 994.39 995.05 995.79 996.27 996.87 997.78 998.03 998.43 998.98 1000.04 1001.09 1001.77 1002.32 1002.62 1003.12 1003.44 1003.61 1003.99 1004.43 1004.88 1005.37 1005.83 1006.30 1006.76
1004.39 1004.18 1004.25 1004.72 1004.00 1001.67 999.85 998.19 997.06 996.63 995.61 994.74 993.15 992.11 991.05 991.04 990.91 990.59 990.72 990.95 990.98 991.16 991.53 992.13 992.95 994.02 994.67 995.39 995.91 996.59 997.28 997.49 998.06 998.81 1000.00 1000.57 1001.14 1001.57 1002.28 1002.70 1003.08 1003.42 1003.76 1004.35 1004.92 1005.40 1005.83 1006.18 1006.53
1004.51 1003.96 1003.43 1003.60 1003.61 1002.15 1000.15 998.56 997.34 996.91 997.08 995.05 993.73 992.24 991.56 990.81 990.68 990.91 990.95 990.97 990.85 990.98 991.25 991.81 992.53 993.49 994.29 995.08 995.75 996.37 996.80 997.10 997.74 998.56 999.50 1000.03 1000.61 1001.27 1002.02 1002.55 1002.87 1003.22 1003.87 1004.31 1004.83 1005.31 1005.59 1006.04 1006.47
1003.44 1003.16 1003.49 1005.07 1004.61 1002.60 1000.71 998.85 998.98 999.58 999.99 999.19 996.61 993.02 991.53 990.82 990.83 990.71 990.60 991.07 990.53 990.57 991.01 991.90 992.54 993.36 994.27 995.03 995.77 996.25 996.84 997.23 997.88 998.72 999.25 999.93 1000.67 1001.26 1001.79 1002.24 1002.80 1003.42 1003.86 1004.39 1004.83 1005.19 1005.58 1006.03 1006.44
1004.36 1004.11 1004.82 1004.06 1003.16 1002.17 1001.27 998.43 999.92 1001.61 1001.23 1001.02 999.13 994.14 993.03 991.56 991.29 991.31 991.38 991.41 991.51 990.86 991.07 992.04 992.71 993.50 994.24 994.95 995.86 996.49 997.01 997.68 998.31 998.93 999.64 1000.16 1000.81 1001.28 1001.73 1002.16 1002.72 1003.09 1003.50 1003.99 1004.55 1005.13 1005.29 1005.85 1006.21
Wind_Speed
9 11 10 9 7 8 16 20 21 22 7 13 14 3 7 12 16 7 16 15 23 19 19 20 20 18 16 14 13 12 11 11 11 11 11 11 12 11 10 9 8 8 6 6 6 5 5 4 4
10 12 9 7 9 13 14 20 22 20 5 4 6 2 4 8 17 18 14 22 22 19 18 17 21 19 18 17 14 12 12 11 11 11 11 11 11 11 11 10 9 9 8 7 6 5 4 4 4
11 16 8 7 13 16 17 19 15 9 5 5 2 5 5 6 17 18 12 20 22 17 17 17 21 20 18 17 15 15 13 12 11 12 12 12 11 10 10 10 10 10 9 8 8 6 5 4 3
8 7 7 11 19 19 25 23 25 14 11 5 10 10 5 10 5 11 15 18 18 17 17 21 21 20 18 18 17 15 14 14 13 13 12 12 13 12 11 10 10 10 10 9 8 7 7 6 4
11 7 11 15 19 21 23 22 15 11 8 11 13 6 10 6 13 17 16 15 18 17 16 20 21 18 18 18 17 16 15 14 14 14 13 13 13 13 13 13 12 10 10 10 9 8 8 7 6
4 6 13 16 21 22 20 21 20 11 12 6 15 13 9 13 11 15 16 14 15 17 16 16 21 18 16 16 17 17 16 16 16 15 15 14 14 14 14 13 13 12 11 11 10 10 9 8 7
15 10 13 19 18 24 23 22 23 10 13 18 11 11 8 14 13 17 15 13 15 17 16 14 13 16 16 15 15 17 17 17 16 15 15 14 14 14 14 14 13 12 13 12 11 12 10 9 7
11 11 20 20 17 22 21 19 20 15 16 14 15 6 10 3 15 18 16 17 17 18 17 15 13 14 13 11 14 14 15 15 15 15 15 15 14 14 14 13 13 14 14 13 13 12 10 9 7
20 16 17 23 22 19 18 17 15 14 18 19 19 9 2 11 16 18 16 17 15 16 19 16 15 14 13 12 12 12 14 14 14 13 15 13 9 10 13 14 15 16 15 14 14 12 11 9 9
20 18 26 23 19 17 18 19 16 14 18 16 18 12 6 6 9 11 11 14 14 17 19 16 16 16 15 11 11 13 11 9 9 10 11 9 10 8 12 14 18 18 17 15 14 13 12 11 7
22 26 25 27 24 20 21 20 17 18 21 20 16 18 14 8 13 15 15 15 16 15 15 19 13 16 15 11 9 7 7 8 9 13 11 10 8 8 9 7 9 8 14 8 10 9 7 10 8
27 29 28 29 26 26 26 22 19 17 21 24 23 18 13 14 11 15 17 17 15 15 15 15 11 12 11 8 9 10 9 9 9 11 13 9 8 8 8 7 9 9 8 10 8 7 9 10 10
29 28 28 27 26 26 27 29 27 18 21 24 25 25 16 17 11 10 9 5 4 16 15 16 21 12 8 6 4 7 8 9 11 11 14 12 11 10 9 7 8 10 10 10 9 8 10 11 11
21 26 28 28 27 23 27 28 24 27 20 21 22 22 20 12 8 12 10 7 4 3 5 2 14 13 11 8 7 4 5 7 9 10 11 17 12 9 10 9 7 7 10 9 11 10 10 11 11
21 26 24 28 24 26 23 27 30 25 23 24 21 20 21 18 17 23 13 9 7 4 2 4 1 12 11 11 9 6 4 5 5 6 10 18 14 12 11 9 10 8 5 12 9 11 9 5 6
20 21 22 22 25 27 21 29 29 25 22 22 24 20 20 20 18 15 12 7 7 6 7 6 5 2 11 10 8 7 8 7 6 5 5 13 16 13 10 9 8 9 7 5 6 6 6 6 4
16 20 24 25 24 21 24 33 27 22 21 22 21 21 21 21 20 16 17 11 7 8 7 7 7 5 7 6 8 7 7 5 5 5 5 7 15 15 10 8 7 8 7 7 4 4 5 3 4
17 20 20 25 24 24 26 30 28 25 26 22 22 21 21 24 24 19 18 16 11 10 10 9 7 6 4 4 6 4 4 5 5 5 5 7 9 14 11 7 8 5 8 5 4 5 3 4 4
20 22 24 24 24 26 22 25 28 22 26 26 23 18 21 24 16 15 18 20 19 9 9 9 8 7 4 3 4 4 5 5 6 6 7 7 8 10 11 9 7 8 7 7 6 5 5 3 3
19 22 25 24 23 22 24 30 29 22 23 21 24 22 22 19 18 24 19 9 8 10 10 9 9 8 7 6 5 4 5 7 7 6 7 7 8 9 9 9 8 10 6 6 5 5 3 3 4
20 21 22 24 21 21 25 27 26 27 24 20 20 19 22 22 20 16 14 9 7 9 9 9 10 10 10 11 6 5 6 4 3 4 5 6 8 8 9 10 9 9 6 6 4 5 6 5 4
20 19 21 21 21 16 17 18 22 22 25 22 21 24 19 15 15 16 13 9 6 6 7 9 11 12 11 11 9 9 8 7 5 4 6 6 6 7 9 10 8 6 7 5 7 5 5 5 3
23 22 23 23 22 22 23 17 17 21 26 21 21 24 24 16 19 19 16 13 12 13 12 11 10 12 14 14 13 9 8 6 3 4 6 6 5 6 6 8 7 6 6 6 9 8 8 5 4
19 21 25 23 18 20 24 23 20 20 22 25 21 21 23 22 25 21 19 19 18 17 16 12 14 15 14 12 13 10 8 8 6 7 7 6 5 4 6 9 8 6 8 7 8 6 7 4 4
15 14 11 17 16 17 23 23 17 24 23 25 27 22 20 15 16 12 17 17 14 12 13 9 10 12 12 13 12 14 11 11 8 11 9 9 6 5 10 10 7 8 6 6 6 6 6 5 4
16 16 7 14 16 16 19 18 13 23 23 23 26 22 23 9 15 16 9 10 15 15 12 13 9 9 9 10 11 9 13 8 8 11 9 7 8 9 10 10 10 8 8 6 6 4 4 4 4
17 15 14 12 22 20 18 24 13 22 24 23 25 24 9 11 13 8 8 6 6 7 6 10 10 10 10 11 10 10 11 10 12 11 13 10 10 9 12 10 8 8 6 7 6 4 4 4 5
25 18 15 7 7 16 17 17 14 12 24 18 23 17 17 16 8 7 11 12 11 11 6 9 9 11 11 10 10 10 10 8 12 10 14 13 9 12 11 10 7 6 6 6 6 4 5 5 4
14 17 9 6 5 7 13 12 12 18 22 27 30 22 9 3 9 9 7 5 6 3 8 7 8 11 11 11 11 11 10 10 12 11 9 12 10 10 8 7 7 6 5 5 7 5 4 5 6
10 16 6 8 10 11 13 20 16 21 26 27 29 9 13 7 11 4 10 8 8 8 11 10 11 12 13 10 11 12 12 11 11 10 10 10 9 8 7 7 7 7 6 6 6 5 5 6 7
Wind_Direction
253 248 253 260 243 229 254 243 258 270 246 200 235 315 255 280 60 20 127 140 122 133 142 151 153 156 154 152 152 155 153 150 147 149 152 149 147 146 147 150 154 154 154 147 148 148 144 135 129
228 245 251 274 238 245 246 232 239 249 282 147 75 337 342 281 99 147 149 128 128 137 143 151 156 159 160 156 153 155 154 148 151 156 156 157 156 156 157 162 167 167 168 167 164 170 166 163 151
261 263 259 225 235 247 263 253 218 217 87 62 105 241 232 253 126 139 121 127 124 132 143 150 158 159 162 160 157 157 157 157 160 167 171 169 166 165 168 172 177 178 180 179 177 182 180 189 182
232 217 254 260 250 244 248 277 301 161 138 182 229 186 245 61 63 122 136 136 132 138 148 148 159 158 166 165 164 162 162 163 171 178 178 180 174 172 174 182 185 183 187 190 186 184 191 203 205
252 265 236 251 246 256 277 279 293 295 168 205 230 210 208 136 106 134 137 149 144 144 151 153 156 162 167 169 167 168 167 169 176 180 182 187 179 178 178 186 187 187 193 194 197 196 202 209 217
246 239 256 250 246 253 254 273 288 269 279 243 203 215 204 162 165 150 147 153 157 142 133 150 157 164 169 170 171 173 176 178 182 185 188 187 186 184 185 192 189 189 198 198 202 206 209 215 224
248 223 244 257 266 285 287 315 309 238 253 264 268 238 242 162 170 155 169 161 156 138 128 144 160 164 170 174 179 179 182 183 185 187 192 192 191 192 191 194 196 197 201 202 204 211 213 219 228
225 254 261 259 259 258 277 285 289 304 240 260 255 278 253 271 164 154 173 176 164 143 135 143 158 175 176 180 189 190 191 189 190 191 193 195 198 197 197 198 203 203 205 204 207 213 214 221 238
240 243 245 250 258 272 278 278 285 281 281 262 280 263 17 360 166 155 189 175 174 156 148 150 163 168 178 184 187 195 201 199 196 202 202 196 198 203 208 206 208 210 207 206 210 214 215 219 226
238 242 240 246 258 265 273 287 283 269 264 242 246 235 149 167 161 210 197 182 188 162 160 160 160 163 175 185 181 187 197 204 207 206 202 206 207 207 205 207 211 206 206 208 212 214 214 219 231
234 245 243 250 255 250 269 281 280 275 270 264 227 249 168 206 208 216 193 217 186 183 172 161 152 161 170 188 166 176 192 195 205 209 205 200 210 215 210 208 197 199 206 205 209 210 217 218 219
241 244 249 257 265 278 277 272 250 256 277 290 296 237 239 196 226 217 217 208 214 196 182 129 136 158 173 170 168 175 188 190 200 203 201 201 199 210 219 206 194 192 192 204 210 204 204 222 226
253 251 249 246 246 261 274 272 275 242 256 273 283 289 281 191 186 274 263 273 11 3 22 160 190 164 156 178 197 184 192 187 197 196 199 197 203 207 206 216 209 183 196 190 206 205 204 213 220
264 255 258 258 259 249 242 257 265 259 252 248 267 279 283 180 237 250 270 287 291 173 195 159 141 150 156 177 214 199 197 203 195 194 195 200 199 194 209 204 206 214 191 201 198 209 210 205 211
267 273 277 263 265 256 256 255 245 256 256 256 255 263 272 280 211 216 212 230 216 229 251 311 11 155 163 178 192 219 235 202 233 215 193 189 194 204 197 209 210 202 211 195 191 209 214 204 206
283 273 265 253 246 254 262 265 247 249 257 242 255 259 265 260 266 265 266 231 185 194 190 200 250 159 172 176 186 203 214 224 228 216 211 177 190 193 205 203 205 214 205 227 202 188 190 200 207
241 258 260 266 257 256 230 254 255 255 251 254 241 241 250 252 246 240 243 244 204 198 196 187 181 216 180 180 194 203 215 230 235 215 216 187 181 195 190 210 209 186 211 214 204 202 181 196 175
268 256 251 251 256 262 262 247 243 239 254 247 244 254 240 240 249 239 222 231 211 179 165 174 183 193 208 186 205 211 210 223 225 228 227 190 184 180 194 204 206 201 203 207 212 185 205 177 176
300 295 284 283 293 298 287 268 261 244 227 233 245 251 244 254 262 258 231 224 224 160 164 167 173 186 186 218 213 227 224 222 228 203 209 192 173 177 177 201 212 208 207 203 199 171 176 182 208
281 283 280 286 293 291 285 279 279 274 256 249 225 226 243 260 245 242 249 234 168 164 171 181 187 185 188 211 229 234 215 225 218 192 184 175 162 172 178 190 224 200 208 193 207 162 153 188 229
275 273 278 286 291 281 282 281 278 274 281 276 280 271 225 228 250 253 230 225 209 187 188 184 186 197 205 215 232 220 230 251 272 170 160 156 155 168 176 192 220 188 198 195 175 169 178 201 198
273 273 277 281 280 271 273 274 262 269 263 258 267 274 267 252 247 254 249 233 222 224 198 190 193 201 208 203 216 215 215 213 204 198 145 147 162 181 178 183 216 170 185 206 181 167 197 212 179
312 314 304 287 279 277 265 260 269 268 269 254 251 238 261 255 256 240 245 248 239 238 229 216 207 201 203 202 211 209 213 205 174 130 139 145 125 122 148 177 213 173 190 212 169 187 199 167 190
300 289 283 289 274 261 264 262 264 265 269 268 265 249 235 232 238 245 239 241 242 232 223 213 207 211 197 195 190 198 216 207 174 158 134 135 130 131 187 189 206 185 208 182 170 173 172 169 162
281 293 287 255 249 262 256 254 260 264 265 266 268 275 266 261 243 236 233 228 229 233 234 212 195 190 183 188 185 196 223 196 185 146 152 152 155 182 201 189 192 199 193 172 162 141 149 159 188
273 279 269 283 261 274 291 285 279 312 306 272 269 266 257 264 286 230 252 244 224 218 211 206 183 170 176 183 188 189 205 186 145 146 141 161 174 185 182 190 184 187 177 151 120 127 163 171 186
291 286 235 241 273 262 276 286 253 257 259 268 264 257 236 260 263 253 252 266 262 234 192 177 159 174 181 194 186 184 193 188 150 154 155 175 175 174 176 176 171 174 163 131 142 166 179 174 198
267 291 294 280 303 279 260 267 271 309 347 264 255 261 249 232 225 261 249 240 239 240 193 161 161 168 163 172 174 179 173 163 147 148 168 167 155 154 166 168 173 146 125 148 147 196 186 156 162
300 257 260 12 231 260 277 272 65 355 352 334 328 247 219 227 247 244 241 359 313 193 157 130 165 147 159 162 172 156 174 136 131 150 130 137 149 144 155 149 135 141 157 176 194 123 139 175 169
190 284 252 277 290 288 288 280 20 14 351 338 333 38 293 340 290 223 263 251 251 256 134 178 150 160 158 142 119 119 119 126 120 116 122 126 129 144 162 158 159 169 175 142 137 174 208 205 175